DW7984 Weather Reports


Display with metric or nautical units.
time (UTC)temp
F
wind
direction
speed
MPH
gust
MPH
rain 1hr
in
rain 24hr
in
rain mn
in
humidity
%
barometer
mb
20260505073547 62 262 3.0 13.0 0.00 0.15 0.00 77 1046.2
20260505073447 62 262 4.0 13.0 0.00 0.15 0.00 77 1046.3
20260505073346 61 261 4.0 13.0 0.00 0.15 0.00 78 1046.3
20260505073328 61 314 4.0 14.0 0.00 0.15 0.00 78 1046.3
20260505073320 61 314 4.0 14.0 0.00 0.15 0.00 78 1046.3
20260505073311 61 314 4.0 14.0 0.00 0.15 0.00 79 1046.3
20260505072943 61 359 4.0 14.0 0.00 0.15 0.00 79 1046.3
20260505072842 61 359 4.0 14.0 0.00 0.15 0.00 79 1046.3
20260505072806 60 359 4.0 14.0 0.00 0.15 0.00 79 1046.3
20260505072743 60 359 4.0 14.0 0.00 0.15 0.00 79 1046.3
20260505072643 60 16 4.0 14.0 0.00 0.15 0.00 79 1046.3
20260505072542 60 12 4.0 14.0 0.00 0.15 0.00 79 1046.3
20260505072443 60 354 3.0 14.0 0.00 0.15 0.00 79 1046.3
20260505072423 60 8 3.0 14.0 0.00 0.15 0.00 79 1046.3
20260505072410 60 340 3.0 8.0 0.00 0.15 0.00 79 1046.3
20260505072403 60 331 3.0 8.0 0.00 0.15 0.00 79 1046.3
20260505072039 60 48 2.0 8.0 0.00 0.15 0.00 79 1046.3
20260505071939 60 43 2.0 8.0 0.00 0.15 0.00 80 1046.3
20260505071839 60 235 2.0 7.0 0.00 0.15 0.00 79 1046.3
20260505071803 60 155 2.0 7.0 0.00 0.15 0.00 79 1046.3
20260505071739 60 155 2.0 7.0 0.00 0.15 0.00 80 1046.4
20260505071638 60 240 2.0 5.0 0.00 0.15 0.00 80 1046.4
20260505071558 60 240 2.0 5.0 0.00 0.15 0.00 81 1046.4
20260505071547 60 240 2.0 5.0 0.00 0.15 0.00 81 1046.4
20260505071536 60 277 2.0 4.0 0.00 0.15 0.00 81 1046.4
20260505071525 60 276 2.0 4.0 0.00 0.15 0.00 81 1046.4
20260505071515 60 276 2.0 4.0 0.00 0.15 0.00 81 1046.3
20260505070933 59 276 2.0 7.0 0.00 0.15 0.00 81 1046.3
20260505070832 59 278 2.0 7.0 0.00 0.15 0.00 81 1046.3
20260505070803 59 276 2.0 7.0 0.00 0.15 0.00 82 1046.3
20260505070733 59 278 2.0 7.0 0.00 0.15 0.00 82 1046.3
20260505070701 59 275 2.0 7.0 0.00 0.15 0.00 81 1046.3
20260505070654 59 275 3.0 7.0 0.00 0.15 0.00 81 1046.4
20260505070305 59 275 3.0 7.0 0.00 0.15 0.00 81 1046.4
20260505070233 59 275 3.0 7.0 0.00 0.15 0.00 81 1046.4
20260505070131 59 275 3.0 8.0 0.00 0.15 0.00 81 1046.4
20260505070031 59 276 3.0 8.0 0.00 0.15 0.00 81 1046.3
20260505070015 59 206 3.0 8.0 0.00 0.15 0.00 82 1046.4
20260505070005 59 205 3.0 8.0 0.00 0.15 0.00 82 1046.3
20260505065953 59 203 3.0 8.0 0.00 0.15 0.00 82 1046.3
20260505065628 59 203 3.0 8.0 0.00 0.15 0.00 82 1046.4
20260505065529 59 204 3.0 8.0 0.00 0.15 0.00 82 1046.3
20260505065428 59 306 3.0 8.0 0.00 0.15 0.00 82 1046.4
20260505065324 58 306 3.0 8.0 0.00 0.15 0.00 82 1046.3
20260505065304 58 310 3.0 10.0 0.00 0.15 0.00 82 1046.3
20260505065232 58 326 3.0 10.0 0.00 0.15 0.00 82 1046.4
20260505065225 58 270 3.0 10.0 0.00 0.15 0.00 82 1046.4
20260505065217 58 253 3.0 10.0 0.00 0.15 0.00 83 1046.4
20260505065200 58 98 3.0 10.0 0.00 0.15 0.00 84 1046.3
20260505065140 58 245 3.0 10.0 0.00 0.15 0.00 83 1046.4
20260505064637 58 334 3.0 10.0 0.00 0.15 0.00 84 1046.4
20260505064316 57 322 2.0 10.0 0.00 0.15 0.00 85 1046.5
20260505064304 57 328 2.0 9.0 0.00 0.15 0.00 85 1046.5
20260505064211 57 286 2.0 9.0 0.00 0.15 0.00 85 1046.5
20260505064110 57 289 2.0 9.0 0.00 0.15 0.00 85 1046.4
20260505064009 57 288 2.0 9.0 0.00 0.15 0.00 86 1046.4
20260505063906 57 278 2.0 9.0 0.00 0.15 0.00 86 1046.5
20260505063815 56 31 2.0 7.0 0.00 0.15 0.00 86 1046.5
20260505063806 56 33 2.0 7.0 0.00 0.15 0.00 86 1046.5
20260505063704 56 33 2.0 7.0 0.00 0.15 0.00 87 1046.5
20260505063604 56 299 2.0 7.0 0.00 0.15 0.00 87 1046.4
20260505063505 56 298 2.0 7.0 0.00 0.15 0.00 87 1046.4
20260505063404 56 298 2.0 7.0 0.00 0.15 0.00 87 1046.4
20260505063307 56 298 2.0 7.0 0.00 0.15 0.00 87 1046.4
20260505063203 56 297 2.0 7.0 0.00 0.15 0.00 87 1046.4
20260505063103 56 337 2.0 7.0 0.00 0.15 0.00 87 1046.4
20260505063004 55 307 2.0 7.0 0.00 0.15 0.00 87 1046.5
20260505062904 55 256 2.0 7.0 0.00 0.15 0.00 87 1046.4
20260505062806 55 139 2.0 4.0 0.00 0.15 0.00 87 1046.5
20260505062706 55 139 2.0 4.0 0.00 0.15 0.00 87 1046.4
20260505062603 55 141 2.0 4.0 0.00 0.15 0.00 87 1046.4
20260505062503 55 141 2.0 5.0 0.00 0.15 0.00 87 1046.5
20260505062403 55 141 2.0 5.0 0.00 0.15 0.00 87 1046.5
20260505062316 55 141 2.0 5.0 0.00 0.15 0.00 87 1046.5
20260505062304 55 141 2.0 5.0 0.00 0.15 0.00 87 1046.5
20260505062204 55 143 2.0 5.0 0.00 0.15 0.00 87 1046.5
20260505062059 55 141 2.0 5.0 0.00 0.15 0.00 87 1046.5
20260505061957 55 143 2.0 8.0 0.00 0.15 0.00 87 1046.5
20260505061836 55 141 2.0 8.0 0.00 0.15 0.00 87 1046.5
20260505061828 55 143 2.0 8.0 0.00 0.15 0.00 87 1046.5
20260505061820 55 141 2.0 10.0 0.00 0.15 0.00 87 1046.5
20260505061752 55 141 2.0 10.0 0.00 0.15 0.00 87 1046.4
20260505061522 55 219 2.0 10.0 0.00 0.15 0.00 87 1046.4
20260505061247 55 220 2.0 10.0 0.00 0.15 0.00 87 1046.5
20260505061146 55 220 2.0 10.0 0.00 0.15 0.00 87 1046.4
20260505061043 55 148 2.0 10.0 0.00 0.15 0.00 87 1046.4
20260505060941 55 280 2.0 10.0 0.00 0.15 0.00 87 1046.4
20260505060841 55 303 2.0 10.0 0.00 0.15 0.00 87 1046.3
20260505060804 55 303 2.0 10.0 0.00 0.15 0.00 87 1046.3
20260505060741 55 303 2.0 10.0 0.00 0.15 0.00 87 1046.3
20260505060732 55 187 2.0 9.0 0.00 0.15 0.00 87 1046.3
20260505060724 55 187 2.0 9.0 0.00 0.15 0.00 87 1046.3
20260505060718 55 188 3.0 9.0 0.00 0.15 0.00 87 1046.3
20260505060652 55 187 3.0 13.0 0.00 0.15 0.00 87 1046.3
20260505060203 55 302 3.0 13.0 0.00 0.15 0.00 87 1046.2
20260505060151 55 280 3.0 13.0 0.00 0.15 0.00 87 1046.3
20260505060141 55 280 3.0 13.0 0.00 0.15 0.00 87 1046.2
20260505055911 55 280 3.0 13.0 0.00 0.15 0.00 87 1046.2
20260505055902 55 280 3.0 13.0 0.00 0.15 0.00 87 1046.3
20260505055636 55 304 3.0 13.0 0.00 0.15 0.00 88 1046.3
20260505055405 55 226 3.0 13.0 0.00 0.15 0.00 88 1046.3
20260505055357 55 226 3.0 13.0 0.00 0.15 0.00 88 1046.3
20260505055104 54 318 2.0 13.0 0.00 0.15 0.00 89 1046.3
20260505055056 54 350 3.0 13.0 0.00 0.15 0.00 89 1046.3
20260505054804 54 354 2.0 13.0 0.00 0.15 0.00 89 1046.3
20260505054731 54 354 2.0 13.0 0.00 0.15 0.00 89 1046.3
20260505054631 54 354 3.0 13.0 0.00 0.15 0.00 89 1046.4
20260505054528 54 4 2.0 13.0 0.00 0.15 0.00 90 1046.4
20260505054427 54 304 2.0 8.0 0.00 0.15 0.00 90 1046.4
20260505054304 53 305 3.0 8.0 0.00 0.15 0.00 90 1046.5
20260505054221 53 305 3.0 8.0 0.00 0.15 0.00 90 1046.4
20260505054121 53 305 3.0 9.0 0.00 0.15 0.00 90 1046.5
20260505054023 53 306 3.0 9.0 0.00 0.15 0.00 90 1046.6
20260505053920 53 305 3.0 9.0 0.00 0.15 0.00 90 1046.6
20260505053806 53 245 3.0 9.0 0.00 0.15 0.00 90 1046.6
20260505053747 53 245 4.0 9.0 0.00 0.15 0.00 90 1046.6
20260505053740 53 245 4.0 9.0 0.00 0.15 0.00 90 1046.6
20260505053415 53 231 4.0 10.0 0.00 0.15 0.00 90 1046.6
20260505053304 52 231 5.0 10.0 0.00 0.15 0.00 90 1046.7
20260505053209 52 231 5.0 10.0 0.00 0.15 0.00 90 1046.7
20260505053109 52 236 5.0 10.0 0.00 0.15 0.00 90 1046.7
20260505053040 52 236 5.0 14.0 0.00 0.15 0.00 90 1046.7
20260505053032 52 235 5.0 17.0 0.00 0.15 0.00 90 1046.7
20260505053019 52 226 6.0 17.0 0.00 0.15 0.00 90 1046.6
20260505052706 52 272 6.0 17.0 0.00 0.15 0.00 90 1046.6
20260505052604 52 270 6.0 17.0 0.00 0.15 0.00 90 1046.6
20260505052504 52 256 5.0 17.0 0.00 0.15 0.00 90 1046.7
20260505052404 52 263 5.0 17.0 0.00 0.15 0.00 90 1046.6
20260505052304 52 264 5.0 17.0 0.00 0.15 0.00 90 1046.6
20260505052211 52 275 4.0 17.0 0.00 0.15 0.00 90 1046.7
20260505052158 52 275 4.0 17.0 0.00 0.15 0.00 90 1046.7
20260505052151 52 271 3.0 14.0 0.00 0.15 0.00 90 1046.6
20260505052138 52 252 3.0 9.0 0.00 0.15 0.00 90 1046.7
20260505052124 52 250 2.0 9.0 0.00 0.15 0.00 90 1046.7
20260505051853 52 342 2.0 8.0 0.00 0.15 0.00 90 1046.6
20260505051843 52 343 2.0 8.0 0.00 0.15 0.00 90 1046.7
20260505051835 52 342 2.0 8.0 0.00 0.15 0.00 90 1046.7
20260505051826 52 343 2.0 8.0 0.00 0.15 0.00 90 1046.7
20260505051603 52 343 2.0 8.0 0.00 0.15 0.00 90 1046.7
20260505051554 52 343 3.0 8.0 0.00 0.15 0.00 90 1046.7
20260505051533 52 343 3.0 8.0 0.00 0.15 0.00 90 1046.7
20260505051520 51 342 3.0 8.0 0.00 0.15 0.00 90 1046.6
20260505051506 51 343 3.0 8.0 0.00 0.15 0.00 90 1046.6
20260505051017 51 347 3.0 7.0 0.00 0.15 0.00 90 1046.7
20260505050520 51 324 3.0 8.0 0.00 0.15 0.00 90 1046.7
20260505050251 51 325 3.0 8.0 0.00 0.15 0.00 90 1046.6
20260505050238 51 326 4.0 9.0 0.00 0.15 0.00 90 1046.6
20260505050230 51 326 4.0 9.0 0.00 0.15 0.00 90 1046.6
20260505050221 51 324 4.0 9.0 0.00 0.15 0.00 90 1046.6
20260505041601 49 326 2.0 12.0 0.00 0.15 0.00 91 1046.8
20260505041330 49 288 2.0 8.0 0.00 0.15 0.00 91 1046.7
20260505041323 49 285 2.0 4.0 0.00 0.15 0.00 91 1046.7
20260505040807 49 284 2.0 7.0 0.00 0.15 0.00 91 1046.8
20260505040759 49 285 2.0 7.0 0.00 0.15 0.00 91 1046.7
20260505040751 49 285 2.0 7.0 0.00 0.15 0.00 91 1046.8
20260505040422 49 285 2.0 7.0 0.00 0.15 0.00 91 1046.7
20260505040337 49 359 2.0 7.0 0.00 0.15 0.00 91 1046.7
20260505040328 49 285 2.0 7.0 0.00 0.15 0.00 91 1046.7
20260505040321 49 285 2.0 7.0 0.00 0.15 0.00 91 1046.7
20260505040307 49 285 2.0 7.0 0.00 0.15 0.00 91 1046.8
20260505040300 49 285 2.0 7.0 0.00 0.15 0.00 91 1046.8
20260505035801 49 268 2.0 4.0 0.00 0.15 0.00 91 1046.8
20260505035718 49 268 2.0 4.0 0.00 0.15 0.00 91 1046.8
20260505035619 49 267 2.0 4.0 0.00 0.15 0.00 90 1046.8
20260505035519 49 268 2.0 4.0 0.00 0.15 0.00 90 1046.8
20260505035417 49 268 2.0 4.0 0.00 0.15 0.00 90 1046.8
20260505035301 49 268 3.0 4.0 0.00 0.15 0.00 90 1046.8
20260505035215 49 268 3.0 4.0 0.00 0.15 0.00 90 1046.7
20260505035115 50 268 3.0 4.0 0.00 0.15 0.00 90 1046.7
20260505035016 50 268 3.0 4.0 0.00 0.15 0.00 90 1046.7
20260505034915 50 268 2.0 4.0 0.00 0.15 0.00 90 1046.7
20260505034843 50 268 3.0 4.0 0.00 0.15 0.00 90 1046.7
20260505034836 50 268 3.0 4.0 0.00 0.15 0.00 90 1046.7
20260505034513 50 268 3.0 4.0 0.00 0.15 0.00 90 1046.7
20260505034412 50 268 3.0 4.0 0.00 0.15 0.00 90 1046.6
20260505034348 50 268 2.0 4.0 0.00 0.15 0.00 90 1046.6
20260505034340 50 268 2.0 4.0 0.00 0.15 0.00 90 1046.6
20260505034325 50 268 2.0 4.0 0.00 0.15 0.00 90 1046.7
20260505034104 50 268 2.0 4.0 0.00 0.15 0.00 90 1046.7
20260505034038 50 268 2.0 4.0 0.00 0.15 0.00 90 1046.7
20260505033808 51 268 2.0 4.0 0.00 0.15 0.00 90 1046.7
20260505033800 51 268 2.0 4.0 0.00 0.15 0.00 90 1046.7
20260505033752 51 268 2.0 3.0 0.00 0.15 0.00 90 1046.7
20260505033745 51 268 1.0 3.0 0.00 0.15 0.00 90 1046.7
20260505033207 51 268 2.0 3.0 0.00 0.15 0.00 90 1046.7
20260505033107 51 267 2.0 3.0 0.00 0.15 0.00 90 1046.7
20260505033006 51 268 2.0 3.0 0.00 0.15 0.00 90 1046.8
20260505032906 51 268 2.0 4.0 0.00 0.15 0.00 90 1046.7
20260505032801 51 268 2.0 6.0 0.00 0.15 0.00 89 1046.7
20260505032704 51 268 2.0 6.0 0.00 0.15 0.00 89 1046.8
20260505032631 51 268 2.0 6.0 0.00 0.15 0.00 89 1046.7
20260505032622 51 268 2.0 6.0 0.00 0.15 0.00 89 1046.7
20260505032310 51 268 3.0 7.0 0.00 0.15 0.00 89 1046.7
20260505032300 51 268 3.0 7.0 0.00 0.15 0.00 89 1046.7
20260505032201 51 268 3.0 7.0 0.00 0.15 0.00 89 1046.7
20260505032101 51 268 3.0 8.0 0.00 0.15 0.00 89 1046.7
20260505031956 51 267 3.0 8.0 0.00 0.15 0.00 89 1046.7
20260505031857 51 268 3.0 8.0 0.00 0.15 0.00 89 1046.8
20260505031806 51 267 3.0 8.0 0.00 0.15 0.00 89 1046.7
20260505031756 51 267 3.0 8.0 0.00 0.15 0.00 89 1046.7
20260505031657 51 266 3.0 8.0 0.00 0.15 0.00 89 1046.7
20260505031555 51 266 3.0 8.0 0.00 0.15 0.00 89 1046.7
20260505031451 51 266 3.0 8.0 0.00 0.15 0.00 89 1046.8
20260505031351 52 327 3.0 8.0 0.00 0.15 0.00 89 1046.7
20260505031334 51 327 3.0 8.0 0.00 0.15 0.00 89 1046.7
20260505031330 51 328 3.0 8.0 0.00 0.15 0.00 89 1046.7
20260505031319 52 327 3.0 8.0 0.00 0.15 0.00 89 1046.7
20260505030950 52 337 3.0 6.0 0.00 0.15 0.00 89 1046.6
20260505030850 52 338 3.0 6.0 0.00 0.15 0.00 89 1046.7
20260505030800 52 337 3.0 6.0 0.00 0.15 0.00 89 1046.7
20260505030750 52 338 3.0 6.0 0.00 0.15 0.00 89 1046.7
20260505030707 52 341 3.0 6.0 0.00 0.15 0.00 89 1046.7
20260505030659 52 222 3.0 6.0 0.00 0.15 0.00 89 1046.7
20260505030646 52 214 3.0 6.0 0.00 0.15 0.00 89 1046.8
20260505030637 52 214 3.0 6.0 0.00 0.15 0.00 89 1046.7
20260505030415 52 214 3.0 8.0 0.00 0.15 0.00 89 1046.7
20260505030047 52 214 4.0 8.0 0.00 0.15 0.00 89 1046.7
20260505025948 52 214 4.0 9.0 0.00 0.15 0.00 89 1046.8
20260505025846 52 268 4.0 9.0 0.00 0.15 0.00 89 1046.8
20260505025803 52 274 4.0 13.0 0.00 0.15 0.00 89 1046.8
20260505025743 52 324 4.0 13.0 0.00 0.15 0.00 89 1046.7
20260505025716 52 324 4.0 13.0 0.00 0.15 0.00 89 1046.7
20260505025707 52 325 4.0 13.0 0.00 0.15 0.00 89 1046.7
20260505025340 52 327 4.0 13.0 0.00 0.15 0.00 89 1046.6
20260505025304 52 335 4.0 13.0 0.00 0.15 0.00 89 1046.6
20260505025240 52 359 4.0 13.0 0.00 0.15 0.00 89 1046.6
20260505025139 52 8 4.0 13.0 0.00 0.15 0.00 89 1046.6
20260505025039 52 4 4.0 13.0 0.00 0.15 0.00 89 1046.7
20260505024938 52 29 4.0 13.0 0.00 0.15 0.00 89 1046.7
20260505024839 52 320 4.0 13.0 0.00 0.15 0.00 89 1046.7
20260505024801 52 19 4.0 9.0 0.00 0.15 0.00 89 1046.7
20260505024740 52 19 4.0 9.0 0.00 0.15 0.00 89 1046.7
20260505024720 52 28 4.0 9.0 0.00 0.15 0.00 89 1046.7
20260505024710 52 359 4.0 8.0 0.00 0.15 0.00 89 1046.7
20260505024337 52 320 4.0 8.0 0.00 0.15 0.00 89 1046.6
20260505024302 52 359 4.0 9.0 0.00 0.15 0.00 89 1046.6
20260505024236 52 320 4.0 9.0 0.00 0.15 0.00 89 1046.6
20260505024134 52 319 4.0 9.0 0.00 0.15 0.00 89 1046.6
20260505024034 52 359 4.0 10.0 0.00 0.15 0.00 89 1046.6
20260505023933 52 333 4.0 10.0 0.00 0.15 0.00 89 1046.6
20260505023832 52 333 4.0 10.0 0.00 0.15 0.00 89 1046.6
20260505023800 52 333 4.0 10.0 0.00 0.15 0.00 89 1046.6
20260505023732 52 335 4.0 10.0 0.00 0.15 0.00 89 1046.5
20260505023631 52 332 4.0 10.0 0.00 0.15 0.00 89 1046.6
20260505023531 52 328 4.0 10.0 0.00 0.15 0.00 89 1046.6
20260505023431 52 322 4.0 10.0 0.00 0.15 0.00 89 1046.5
20260505023417 52 312 4.0 10.0 0.00 0.15 0.00 89 1046.5
20260505023405 52 359 4.0 10.0 0.00 0.15 0.00 89 1046.5
20260505023358 52 340 4.0 10.0 0.00 0.15 0.00 89 1046.4
20260505023051 52 310 4.0 8.0 0.00 0.15 0.00 88 1046.5
20260505023045 52 309 4.0 8.0 0.00 0.15 0.00 88 1046.6
20260505022800 52 306 4.0 8.0 0.00 0.15 0.00 88 1046.6
20260505022717 52 305 4.0 8.0 0.00 0.15 0.00 88 1046.6
20260505022618 52 305 5.0 9.0 0.00 0.15 0.00 88 1046.7
20260505022536 53 305 5.0 11.0 0.00 0.15 0.00 89 1046.6
20260505022526 53 305 5.0 11.0 0.00 0.15 0.00 89 1046.7
20260505022513 53 305 5.0 12.0 0.00 0.15 0.00 89 1046.7
20260505022214 53 305 6.0 12.0 0.00 0.15 0.00 89 1046.7
20260505022113 53 305 6.0 12.0 0.00 0.15 0.00 89 1046.7
20260505022101 53 305 6.0 12.0 0.00 0.15 0.00 89 1046.7
20260505022055 53 303 6.0 12.0 0.00 0.15 0.00 89 1046.7
20260505021751 53 311 6.0 12.0 0.00 0.15 0.00 89 1046.7
20260505021706 53 336 6.0 12.0 0.00 0.15 0.00 89 1046.7
20260505021607 53 337 6.0 13.0 0.00 0.15 0.00 89 1046.6
20260505021501 53 335 6.0 13.0 0.00 0.15 0.00 89 1046.7
20260505021404 53 332 6.0 13.0 0.00 0.15 0.00 89 1046.7
20260505021302 53 327 6.0 13.0 0.00 0.15 0.00 89 1046.7
20260505021252 53 341 6.0 13.0 0.00 0.15 0.00 89 1046.7
20260505021239 53 318 6.0 13.0 0.00 0.15 0.00 89 1046.7
20260505021231 53 359 5.0 13.0 0.00 0.15 0.00 89 1046.7
20260505020902 52 359 5.0 13.0 0.00 0.15 0.00 90 1046.7
20260505020802 52 328 5.0 13.0 0.00 0.15 0.00 90 1046.8
20260505020752 52 338 5.0 13.0 0.00 0.15 0.00 90 1046.8
20260505020702 52 350 4.0 13.0 0.00 0.15 0.00 90 1046.7
20260505020601 52 359 4.0 10.0 0.00 0.15 0.00 90 1046.7
20260505020534 52 326 4.0 10.0 0.00 0.15 0.00 90 1046.8
20260505020522 52 325 3.0 10.0 0.00 0.15 0.00 90 1046.8
20260505020250 52 305 3.0 10.0 0.00 0.15 0.00 89 1046.8
20260505020157 52 321 3.0 6.0 0.00 0.15 0.00 89 1046.9
20260505020052 52 329 2.0 6.0 0.00 0.15 0.00 90 1046.8
20260505020035 52 327 3.0 6.0 0.00 0.15 0.00 90 1046.7
20260505015748 52 327 3.0 9.0 0.00 0.15 0.00 90 1046.8
20260505015646 52 327 3.0 9.0 0.00 0.15 0.00 90 1046.8
20260505015546 52 327 3.0 9.0 0.00 0.15 0.00 90 1046.8
20260505015448 52 326 3.0 9.0 0.00 0.15 0.00 90 1046.8
20260505015348 52 327 4.0 11.0 0.00 0.15 0.00 90 1046.7
20260505015335 52 359 4.0 11.0 0.00 0.15 0.00 90 1046.7
20260505015330 52 327 4.0 11.0 0.00 0.15 0.00 90 1046.7
20260505015315 52 327 4.0 11.0 0.00 0.15 0.00 90 1046.7
20260505015047 52 326 5.0 11.0 0.00 0.15 0.00 90 1046.7
20260505015021 52 359 5.0 11.0 0.00 0.15 0.00 90 1046.7
20260505014736 52 292 5.0 11.0 0.00 0.15 0.00 90 1046.7
20260505014634 52 331 5.0 11.0 0.00 0.15 0.00 90 1046.6
20260505014540 52 332 5.0 11.0 0.00 0.15 0.00 90 1046.7
20260505014532 52 330 5.0 11.0 0.00 0.15 0.00 90 1046.7
20260505014512 52 8 4.0 10.0 0.00 0.15 0.00 90 1046.7
20260505014234 52 359 4.0 9.0 0.00 0.15 0.00 90 1046.6
20260505014132 52 359 4.0 9.0 0.00 0.15 0.00 90 1046.6
20260505014030 52 359 4.0 8.0 0.00 0.15 0.00 90 1046.6
20260505013938 52 359 4.0 8.0 0.00 0.15 0.00 90 1046.6
20260505013829 52 359 4.0 8.0 0.00 0.15 0.00 90 1046.6
20260505013747 52 317 4.0 8.0 0.00 0.15 0.00 90 1046.6
20260505013730 52 318 3.0 8.0 0.00 0.15 0.00 90 1046.6
20260505013629 52 318 3.0 8.0 0.00 0.15 0.00 90 1046.6
20260505013429 52 316 3.0 8.0 0.00 0.15 0.00 90 1046.6
20260505013329 52 312 3.0 8.0 0.00 0.15 0.00 90 1046.6
20260505013246 52 313 3.0 8.0 0.00 0.15 0.00 90 1046.6
20260505013229 52 312 3.0 8.0 0.00 0.15 0.00 90 1046.6
20260505013129 52 313 3.0 8.0 0.00 0.15 0.00 90 1046.7
20260505013059 52 310 3.0 8.0 0.00 0.15 0.00 91 1046.6
20260505013042 52 308 4.0 8.0 0.00 0.15 0.00 91 1046.6
20260505013009 52 309 4.0 8.0 0.00 0.15 0.00 91 1046.7
20260505012726 52 306 4.0 9.0 0.00 0.15 0.00 91 1046.7
20260505012648 52 306 4.0 9.0 0.00 0.15 0.00 91 1046.6
20260505012633 52 305 4.0 9.0 0.00 0.15 0.00 91 1046.6
20260505012623 52 303 4.0 9.0 0.00 0.15 0.00 91 1046.7
20260505012603 52 341 4.0 9.0 0.00 0.15 0.00 91 1046.6
20260505012548 52 341 4.0 9.0 0.00 0.15 0.00 92 1046.6
20260505012541 52 342 4.0 9.0 0.00 0.15 0.00 92 1046.6
20260505012514 52 344 4.0 9.0 0.00 0.15 0.00 92 1046.6
20260505012226 52 359 4.0 9.0 0.00 0.15 0.00 92 1046.7
20260505011947 52 345 4.0 8.0 0.00 0.15 0.00 92 1046.7
20260505011622 51 354 4.0 7.0 0.00 0.15 0.00 92 1046.7
20260505011520 51 354 4.0 7.0 0.00 0.15 0.00 92 1046.7
20260505011420 51 354 3.0 7.0 0.00 0.15 0.00 92 1046.7
20260505011314 51 354 4.0 7.0 0.00 0.15 0.00 92 1046.7
20260505011245 51 354 4.0 7.0 0.00 0.15 0.00 92 1046.7
20260505011215 51 354 3.0 7.0 0.00 0.15 0.00 92 1046.7
20260505011114 51 310 3.0 7.0 0.00 0.15 0.00 92 1046.7
20260505011014 51 309 3.0 7.0 0.00 0.15 0.00 92 1046.7
20260505010953 51 308 3.0 7.0 0.00 0.15 0.00 92 1046.7
20260505010943 51 304 2.0 7.0 0.00 0.15 0.00 92 1046.6
20260505010930 50 304 2.0 7.0 0.00 0.15 0.00 91 1046.6
20260505010918 50 304 2.0 7.0 0.00 0.15 0.00 91 1046.7
20260505010630 50 304 2.0 7.0 0.00 0.15 0.00 91 1046.7
20260505010348 50 291 2.0 5.0 0.00 0.15 0.00 91 1046.8
20260505010337 50 291 2.0 5.0 0.00 0.15 0.00 91 1046.8
20260505010329 50 291 2.0 3.0 0.00 0.15 0.00 91 1046.8
20260505010006 50 291 1.0 3.0 0.00 0.15 0.00 91 1046.8
20260505005906 50 291 1.0 3.0 0.00 0.15 0.00 91 1046.8
20260505005806 51 291 1.0 3.0 0.00 0.15 0.00 91 1046.8
20260505005744 51 291 1.0 3.0 0.00 0.15 0.00 91 1046.8
20260505005706 51 291 1.0 3.0 0.00 0.15 0.00 91 1046.7
20260505005605 51 291 1.0 3.0 0.00 0.15 0.00 91 1046.8
20260505005506 51 291 1.0 3.0 0.00 0.15 0.00 91 1046.7
20260505005406 51 291 1.0 3.0 0.00 0.15 0.00 91 1046.8
20260505005305 51 291 1.0 2.0 0.00 0.15 0.00 91 1046.8
20260505005245 51 291 1.0 2.0 0.00 0.15 0.00 91 1046.8
20260505005204 51 291 1.0 2.0 0.00 0.15 0.00 91 1046.8
20260505005104 51 291 1.0 3.0 0.00 0.15 0.00 91 1046.8
20260505005002 51 291 1.0 3.0 0.00 0.15 0.00 91 1046.8
20260505004902 51 291 1.0 3.0 0.00 0.15 0.00 91 1046.8
20260505004801 51 291 1.0 4.0 0.00 0.15 0.00 91 1046.9
20260505004742 51 291 1.0 5.0 0.00 0.15 0.00 91 1046.8
20260505004704 51 291 2.0 7.0 0.00 0.15 0.00 91 1046.8
20260505004602 51 291 2.0 7.0 0.00 0.15 0.00 91 1046.9
20260505004502 51 291 3.0 7.0 0.00 0.15 0.00 91 1046.9
20260505004404 51 291 3.0 7.0 0.00 0.15 0.00 91 1046.9
20260505004302 51 291 4.0 7.0 0.00 0.15 0.00 91 1046.9
20260505004242 51 291 4.0 7.0 0.00 0.15 0.00 91 1046.9
20260505004202 51 290 4.0 7.0 0.00 0.15 0.00 91 1046.9
20260505004102 51 291 4.0 7.0 0.00 0.15 0.00 91 1046.9
20260505004002 51 290 4.0 7.0 0.00 0.15 0.00 91 1046.8
20260505003902 51 291 4.0 7.0 0.00 0.15 0.00 91 1046.8
20260505003824 51 291 4.0 7.0 0.00 0.15 0.00 91 1046.9
20260505003817 51 291 4.0 7.0 0.00 0.15 0.00 91 1046.9
20260505003750 51 291 4.0 7.0 0.00 0.15 0.00 91 1046.9
20260505003743 51 291 4.0 7.0 0.00 0.15 0.00 91 1046.8
20260505003730 51 292 4.0 7.0 0.00 0.15 0.00 92 1046.8
20260505003722 51 291 4.0 7.0 0.00 0.15 0.00 92 1046.8
20260505003713 51 292 4.0 7.0 0.00 0.15 0.00 92 1046.8
20260505003706 51 292 4.0 7.0 0.00 0.15 0.00 92 1046.9
20260505003654 51 292 4.0 5.0 0.00 0.15 0.00 92 1046.9
20260505003149 51 295 4.0 8.0 0.00 0.15 0.00 92 1046.9
20260505002927 51 295 4.0 8.0 0.00 0.15 0.00 92 1046.9
20260505002556 51 359 4.0 8.0 0.00 0.15 0.00 92 1046.9
20260505002526 51 295 4.0 8.0 0.00 0.15 0.00 92 1046.9
20260505002518 51 295 4.0 8.0 0.00 0.15 0.00 92 1046.9
20260505002244 51 295 4.0 8.0 0.00 0.15 0.00 92 1046.9
20260505002155 51 295 4.0 8.0 0.00 0.15 0.00 92 1046.9
20260505002142 51 291 4.0 8.0 0.00 0.15 0.00 92 1046.9
20260505002133 51 291 4.0 8.0 0.00 0.15 0.00 92 1046.9
20260505001742 50 291 4.0 8.0 0.00 0.15 0.00 92 1046.9
20260505001725 50 290 4.0 8.0 0.00 0.15 0.00 92 1046.9
20260505001719 50 292 4.0 8.0 0.00 0.15 0.00 92 1046.9
20260505001348 50 284 3.0 7.0 0.00 0.15 0.00 92 1047.0
20260505001247 50 316 3.0 5.0 0.00 0.15 0.00 91 1047.0
20260505001238 50 316 2.0 5.0 0.00 0.15 0.00 91 1047.0
20260505001211 50 315 2.0 5.0 0.00 0.15 0.00 91 1047.1
20260505001202 50 316 2.0 4.0 0.00 0.15 0.00 91 1047.0
20260505000837 50 316 2.0 4.0 0.00 0.15 0.00 91 1047.0
20260505000738 50 316 2.0 4.0 0.00 0.15 0.00 91 1047.0
20260505000638 50 359 1.0 3.0 0.00 0.15 0.00 91 1047.0
20260505000538 50 316 1.0 3.0 0.00 0.15 0.00 91 1047.0
20260505000528 50 316 1.0 3.0 0.00 0.15 0.00 91 1047.0
20260505000520 50 316 1.0 3.0 0.00 0.15 0.00 91 1047.0
20260505000504 50 316 1.0 3.0 0.00 0.15 0.00 91 1047.0
20260505000450 50 316 1.0 3.0 0.00 0.15 0.00 91 1047.0
20260505000435 50 316 1.0 3.0 0.00 0.15 0.00 91 1047.0
20260505000428 50 315 1.0 3.0 0.00 0.15 0.00 91 1047.0
20260504235940 50 316 1.0 3.0 0.00 0.15 0.00 91 1046.9
20260504235701 50 315 1.0 3.0 0.00 0.15 0.00 91 1046.9
20260504235335 51 316 2.0 4.0 0.00 0.15 0.00 91 1047.0
20260504235258 51 316 2.0 4.0 0.00 0.15 0.00 91 1047.0
20260504235247 51 316 2.0 4.0 0.00 0.15 0.00 91 1047.1
20260504235236 51 316 2.0 4.0 0.00 0.15 0.00 91 1047.1
20260504235003 51 316 3.0 4.0 0.00 0.15 0.00 91 1047.0
20260504234954 51 316 3.0 5.0 0.00 0.15 0.00 91 1047.0
20260504234647 51 316 3.0 6.0 0.00 0.15 0.00 91 1047.0
20260504234640 51 316 3.0 6.0 0.00 0.15 0.00 91 1047.1
20260504234620 51 316 3.0 6.0 0.00 0.15 0.00 91 1047.0
20260504234610 51 315 3.0 6.0 0.00 0.15 0.00 91 1047.0
20260504234347 51 315 3.0 6.0 0.00 0.15 0.00 91 1047.0
20260504234330 51 316 3.0 6.0 0.00 0.15 0.00 91 1047.0
20260504234320 51 316 3.0 6.0 0.00 0.15 0.00 91 1047.1
20260504233735 51 316 3.0 6.0 0.00 0.15 0.00 91 1047.1
20260504233634 51 359 3.0 6.0 0.00 0.15 0.00 91 1047.1
20260504233533 51 321 3.0 8.0 0.00 0.15 0.00 91 1047.1
20260504233434 51 322 4.0 8.0 0.00 0.15 0.00 91 1047.1
20260504233333 51 322 4.0 8.0 0.00 0.15 0.00 91 1047.0
20260504233242 51 324 4.0 8.0 0.00 0.15 0.00 91 1047.0
20260504233234 51 359 4.0 8.0 0.00 0.15 0.00 91 1047.0
20260504233133 51 324 4.0 8.0 0.00 0.15 0.00 91 1047.1
20260504233033 51 324 4.0 8.0 0.00 0.15 0.00 91 1047.0
20260504232933 52 324 4.0 8.0 0.00 0.15 0.00 92 1047.1
20260504232834 52 324 4.0 8.0 0.00 0.15 0.00 92 1047.1
20260504232815 51 336 4.0 8.0 0.00 0.15 0.00 92 1047.0
20260504232811 51 359 4.0 8.0 0.00 0.15 0.00 92 1047.0
20260504232800 51 337 4.0 8.0 0.00 0.15 0.00 92 1047.0
20260504232433 51 359 3.0 6.0 0.00 0.15 0.00 92 1047.1
20260504232356 51 338 3.0 6.0 0.00 0.15 0.00 92 1047.1
20260504232347 51 333 3.0 6.0 0.00 0.15 0.00 92 1047.1
20260504232343 51 330 3.0 6.0 0.00 0.15 0.00 92 1047.1
20260504232323 51 359 3.0 5.0 0.00 0.15 0.00 92 1047.1
20260504232054 51 4 3.0 9.0 0.00 0.15 0.00 92 1047.1
20260504231733 51 4 3.0 9.0 0.00 0.15 0.00 92 1047.1
20260504231631 51 4 3.0 9.0 0.00 0.15 0.00 92 1047.1
20260504231530 51 4 3.0 9.0 0.00 0.15 0.00 92 1047.1
20260504231429 51 4 3.0 9.0 0.00 0.15 0.00 92 1047.1
20260504231407 51 4 4.0 9.0 0.00 0.15 0.00 92 1047.1
20260504231354 51 8 4.0 9.0 0.00 0.15 0.00 92 1047.1
20260504231337 51 8 3.0 9.0 0.00 0.15 0.00 92 1047.0
20260504231108 51 10 3.0 8.0 0.00 0.15 0.00 92 1047.0
20260504231056 51 335 3.0 8.0 0.00 0.15 0.00 92 1047.0
20260504230745 51 359 3.0 8.0 0.00 0.15 0.00 92 1047.0
20260504230629 51 287 3.0 7.0 0.00 0.15 0.00 92 1047.0
20260504230605 51 359 3.0 7.0 0.00 0.15 0.00 92 1047.0
20260504230556 51 285 2.0 7.0 0.00 0.15 0.00 91 1047.0
20260504230502 51 291 2.0 7.0 0.00 0.15 0.00 91 1047.0
20260504230232 51 292 2.0 7.0 0.00 0.15 0.00 91 1047.0
20260504230030 51 292 2.0 7.0 0.00 0.15 0.00 91 1047.0
20260504225929 51 291 2.0 7.0 0.00 0.15 0.00 91 1046.9
20260504225909 51 292 3.0 7.0 0.00 0.15 0.00 91 1046.9
20260504225854 51 295 3.0 7.0 0.00 0.15 0.00 91 1046.9
20260504225530 51 295 3.0 7.0 0.00 0.15 0.00 91 1046.9
20260504225447 51 295 3.0 7.0 0.00 0.15 0.00 91 1046.9
20260504225436 51 295 3.0 7.0 0.00 0.15 0.00 91 1046.9
20260504225420 51 295 3.0 7.0 0.00 0.15 0.00 91 1046.9
20260504225410 51 295 2.0 7.0 0.00 0.15 0.00 91 1046.9
20260504225400 51 295 2.0 7.0 0.00 0.15 0.00 91 1046.9
20260504225050 51 359 2.0 5.0 0.00 0.15 0.00 91 1046.9
20260504224944 51 295 2.0 5.0 0.00 0.15 0.00 91 1046.9
20260504224619 51 295 2.0 4.0 0.00 0.15 0.00 91 1046.9
20260504224519 51 295 2.0 3.0 0.00 0.15 0.00 91 1046.9
20260504224419 51 296 2.0 3.0 0.00 0.15 0.00 91 1046.9
20260504224319 51 295 2.0 3.0 0.00 0.15 0.00 91 1046.9
20260504224219 51 295 2.0 3.0 0.00 0.15 0.00 91 1046.9
20260504224118 51 295 2.0 3.0 0.00 0.15 0.00 91 1046.9
20260504224053 51 295 2.0 3.0 0.00 0.15 0.00 91 1046.9
20260504224043 51 295 2.0 3.0 0.00 0.15 0.00 91 1046.9
20260504223725 51 295 2.0 3.0 0.00 0.15 0.00 91 1046.9
20260504223611 51 295 2.0 4.0 0.00 0.15 0.00 91 1046.9
20260504223511 51 295 2.0 4.0 0.00 0.15 0.00 91 1046.9
20260504223411 51 295 2.0 4.0 0.00 0.15 0.00 91 1046.9
20260504223311 51 295 2.0 4.0 0.00 0.15 0.00 91 1046.9
20260504223236 51 295 2.0 4.0 0.00 0.15 0.00 91 1046.9
20260504223228 51 295 2.0 4.0 0.00 0.15 0.00 91 1046.9
20260504222952 51 295 2.0 4.0 0.00 0.15 0.00 91 1046.9
20260504222940 51 295 2.0 4.0 0.00 0.15 0.00 91 1047.0
20260504222930 51 295 2.0 4.0 0.00 0.15 0.00 91 1047.0
20260504222634 51 295 2.0 4.0 0.00 0.15 0.00 91 1046.9
20260504222626 52 295 2.0 4.0 0.00 0.15 0.00 91 1046.9
20260504222337 52 295 2.0 4.0 0.00 0.15 0.00 91 1047.0
20260504222321 52 295 2.0 4.0 0.00 0.15 0.00 91 1047.0
20260504222312 52 295 2.0 4.0 0.00 0.15 0.00 91 1047.0
20260504222039 52 295 2.0 4.0 0.00 0.15 0.00 91 1047.0
20260504222032 52 295 2.0 4.0 0.00 0.15 0.00 91 1047.0
20260504222009 52 295 2.0 4.0 0.00 0.15 0.00 91 1047.0
20260504222000 52 295 2.0 4.0 0.00 0.15 0.00 91 1047.0
20260504221947 52 295 2.0 4.0 0.00 0.15 0.00 91 1046.9
20260504221939 52 295 2.0 4.0 0.00 0.15 0.00 91 1046.9
20260504221930 52 295 2.0 4.0 0.00 0.15 0.00 91 1046.9
20260504221449 52 295 2.0 4.0 0.00 0.15 0.00 91 1047.0
20260504221443 52 295 2.0 4.0 0.00 0.15 0.00 90 1046.9
20260504221433 52 295 2.0 4.0 0.00 0.15 0.00 90 1046.9
20260504220724 52 295 2.0 4.0 0.00 0.15 0.00 90 1046.9
20260504220711 52 295 2.0 4.0 0.00 0.15 0.00 90 1046.9
20260504220419 52 295 2.0 4.0 0.00 0.15 0.00 90 1046.9
20260504220129 53 295 2.0 3.0 0.00 0.15 0.00 90 1046.9
20260504220122 53 295 2.0 3.0 0.00 0.15 0.15 90 1046.9
20260504215821 53 295 2.0 3.0 0.00 0.15 0.15 90 1046.9
20260504215811 53 295 2.0 3.0 0.00 0.15 0.15 90 1047.0
20260504215803 53 295 2.0 3.0 0.00 0.15 0.15 90 1047.0
20260504215747 53 295 2.0 3.0 0.00 0.15 0.15 90 1046.9
20260504215518 53 359 2.0 3.0 0.00 0.15 0.15 90 1047.0
20260504215235 53 295 2.0 3.0 0.00 0.15 0.15 90 1046.9
20260504215152 53 295 2.0 3.0 0.00 0.15 0.15 90 1046.9
20260504215052 53 295 2.0 4.0 0.00 0.15 0.15 90 1046.8
20260504215019 53 295 2.0 4.0 0.00 0.15 0.15 90 1046.9
20260504215007 53 295 2.0 4.0 0.00 0.15 0.15 90 1046.9
20260504214950 53 295 2.0 4.0 0.00 0.15 0.15 90 1046.9
20260504214642 53 295 1.0 4.0 0.00 0.15 0.15 90 1046.9
20260504214542 53 295 1.0 4.0 0.00 0.15 0.15 90 1046.9
20260504214442 53 295 1.0 4.0 0.00 0.15 0.15 90 1046.9
20260504214342 54 295 1.0 4.0 0.00 0.15 0.15 90 1046.9
20260504214243 54 295 1.0 4.0 0.00 0.15 0.15 90 1047.0
20260504214234 54 359 1.0 4.0 0.00 0.15 0.15 90 1047.0
20260504214138 54 295 0.0 3.0 0.00 0.15 0.15 90 1047.0
20260504214038 54 295 0.0 3.0 0.00 0.15 0.15 90 1047.0
20260504213939 54 295 0.0 2.0 0.00 0.15 0.15 90 1047.0
20260504213925 54 295 0.0 2.0 0.00 0.15 0.15 90 1047.0
20260504213909 54 295 0.0 2.0 0.00 0.15 0.15 90 1047.0
20260504213539 54 295 1.0 3.0 0.00 0.15 0.15 90 1047.0
20260504213530 54 296 1.0 4.0 0.00 0.15 0.15 90 1046.9
20260504213520 54 295 1.0 4.0 0.00 0.15 0.15 90 1046.9
20260504213453 54 295 1.0 4.0 0.00 0.15 0.15 90 1046.9
20260504213132 54 295 1.0 4.0 0.00 0.15 0.15 90 1046.9
20260504213033 54 295 1.0 4.0 0.00 0.15 0.15 90 1046.9
20260504212932 54 295 1.0 4.0 0.00 0.15 0.15 90 1046.9
20260504212834 54 295 1.0 4.0 0.00 0.15 0.15 90 1046.9
20260504212732 54 295 1.0 4.0 0.00 0.15 0.15 90 1046.9
20260504212631 54 295 1.0 4.0 0.00 0.15 0.15 90 1046.9
20260504212531 54 295 1.0 4.0 0.00 0.15 0.15 90 1046.9
20260504212432 54 295 1.0 3.0 0.00 0.15 0.15 90 1046.9
20260504212331 54 295 1.0 2.0 0.00 0.15 0.15 90 1047.0
20260504212247 54 359 1.0 3.0 0.00 0.15 0.15 90 1047.0
20260504212237 54 295 1.0 3.0 0.00 0.15 0.15 90 1047.0
20260504212205 54 295 1.0 3.0 0.00 0.15 0.15 90 1046.9
20260504212154 54 295 1.0 3.0 0.00 0.15 0.15 90 1046.9
20260504211830 54 295 1.0 4.0 0.00 0.15 0.15 89 1046.9
20260504211728 54 295 2.0 4.0 0.00 0.15 0.15 89 1046.9
20260504211644 54 295 2.0 4.0 0.00 0.15 0.15 89 1046.9
20260504211631 54 295 2.0 4.0 0.00 0.15 0.15 89 1046.9
20260504211623 54 295 2.0 4.0 0.00 0.15 0.15 89 1046.8
20260504211615 54 295 2.0 4.0 0.00 0.15 0.15 89 1046.8
20260504211602 54 295 2.0 4.0 0.00 0.15 0.15 89 1046.9
20260504211547 54 295 2.0 4.0 0.00 0.15 0.15 89 1046.8
20260504211323 54 295 2.0 4.0 0.00 0.15 0.15 89 1046.8
20260504211312 54 295 1.0 4.0 0.00 0.15 0.15 89 1046.8
20260504211303 54 295 1.0 4.0 0.00 0.15 0.15 89 1046.8
20260504211019 55 295 1.0 4.0 0.00 0.15 0.15 89 1046.7
20260504210524 55 295 2.0 7.0 0.00 0.15 0.15 89 1046.7
20260504210259 55 295 2.0 7.0 0.00 0.15 0.15 89 1046.8
20260504210246 55 295 2.0 7.0 0.00 0.15 0.15 89 1046.7
20260504205911 55 295 3.0 9.0 0.00 0.15 0.15 89 1046.8
20260504205840 55 295 3.0 9.0 0.00 0.15 0.15 89 1046.7
20260504205832 55 296 4.0 9.0 0.00 0.15 0.15 89 1046.7
20260504205827 55 359 4.0 9.0 0.00 0.15 0.15 89 1046.7
20260504205806 55 295 4.0 9.0 0.00 0.15 0.15 89 1046.8
20260504205539 55 294 4.0 9.0 0.00 0.15 0.15 89 1046.8
20260504205525 55 295 4.0 9.0 0.00 0.15 0.15 89 1046.7
20260504205515 55 359 4.0 9.0 0.00 0.15 0.15 89 1046.7
20260504205509 55 296 4.0 9.0 0.00 0.15 0.15 89 1046.7
20260504205243 55 303 4.0 9.0 0.00 0.15 0.15 89 1046.7
20260504205235 55 303 4.0 11.0 0.00 0.15 0.15 89 1046.7
20260504205221 55 306 4.0 11.0 0.01 0.15 0.15 89 1046.7
20260504204953 55 359 4.0 11.0 0.01 0.15 0.15 89 1046.8
20260504204447 55 293 4.0 11.0 0.01 0.15 0.15 89 1046.7
20260504204439 55 293 4.0 11.0 0.01 0.15 0.15 89 1046.8
20260504204430 55 294 5.0 11.0 0.01 0.15 0.15 89 1046.7
20260504204105 55 272 5.0 11.0 0.02 0.15 0.15 89 1046.7
20260504204020 55 272 5.0 11.0 0.02 0.15 0.15 89 1046.7
20260504204012 55 301 4.0 10.0 0.02 0.15 0.15 89 1046.7
20260504203953 55 287 4.0 10.0 0.02 0.15 0.15 89 1046.7
20260504203707 55 299 4.0 10.0 0.02 0.15 0.15 89 1046.7
20260504203559 55 297 4.0 12.0 0.03 0.15 0.15 89 1046.7
20260504203459 55 312 4.0 12.0 0.04 0.15 0.15 89 1046.7
20260504203359 55 320 4.0 12.0 0.04 0.15 0.15 89 1046.7
20260504203245 55 291 4.0 12.0 0.05 0.15 0.15 89 1046.6
20260504203236 55 322 4.0 12.0 0.05 0.15 0.15 89 1046.6
20260504203228 55 310 4.0 12.0 0.05 0.15 0.15 89 1046.7
20260504202911 55 344 5.0 12.0 0.06 0.15 0.15 89 1046.7
20260504202853 55 286 5.0 12.0 0.06 0.15 0.15 89 1046.7
20260504202841 55 286 5.0 12.0 0.06 0.15 0.15 89 1046.7
20260504202612 55 291 5.0 11.0 0.07 0.15 0.15 89 1046.7
20260504202603 55 276 5.0 11.0 0.08 0.15 0.15 90 1046.7
20260504202546 55 295 5.0 11.0 0.09 0.15 0.15 90 1046.8
20260504202537 55 295 5.0 11.0 0.09 0.15 0.15 90 1046.8
20260504202529 55 291 4.0 11.0 0.09 0.15 0.15 90 1046.8
20260504202519 55 304 4.0 11.0 0.10 0.15 0.15 89 1046.7
20260504202507 55 293 4.0 11.0 0.10 0.15 0.15 90 1046.7
20260504202016 55 301 4.0 11.0 0.11 0.15 0.15 90 1046.7
20260504201748 55 295 4.0 10.0 0.12 0.15 0.15 90 1046.7
20260504201740 55 324 4.0 10.0 0.13 0.15 0.15 90 1046.7
20260504201507 55 324 4.0 10.0 0.13 0.15 0.15 89 1046.6
20260504201232 55 328 4.0 10.0 0.13 0.15 0.15 89 1046.5
20260504201222 55 330 4.0 10.0 0.14 0.15 0.15 89 1046.5
20260504200728 55 301 5.0 10.0 0.14 0.15 0.15 89 1046.5
20260504200642 55 299 5.0 10.0 0.14 0.15 0.15 89 1046.4
20260504200543 55 298 5.0 10.0 0.14 0.15 0.15 89 1046.4
20260504200441 55 359 5.0 11.0 0.15 0.15 0.15 89 1046.5
20260504200340 55 287 5.0 11.0 0.15 0.15 0.15 89 1046.5
20260504200238 55 316 5.0 11.0 0.15 0.15 0.15 89 1046.4
20260504200228 55 319 5.0 11.0 0.15 0.15 0.15 89 1046.4
20260504200139 55 293 5.0 11.0 0.15 0.15 0.15 89 1046.5
20260504200119 55 291 5.0 11.0 0.15 0.15 0.15 89 1046.5
20260504200112 55 359 5.0 11.0 0.15 0.15 0.15 89 1046.5
20260504200100 55 291 5.0 11.0 0.15 0.15 0.15 89 1046.5
20260504195815 55 310 5.0 11.0 0.15 0.15 0.15 89 1046.5
20260504195804 55 314 5.0 11.0 0.15 0.15 0.15 89 1046.5
20260504195516 55 313 4.0 11.0 0.15 0.15 0.15 89 1046.4
20260504195508 55 314 4.0 11.0 0.15 0.15 0.15 89 1046.5
20260504195229 56 304 4.0 9.0 0.15 0.15 0.15 89 1046.5
20260504195139 56 359 4.0 9.0 0.15 0.15 0.15 89 1046.5
20260504195036 56 317 4.0 9.0 0.15 0.15 0.15 89 1046.5
20260504194937 56 339 3.0 8.0 0.15 0.15 0.15 89 1046.6
20260504194836 56 328 4.0 8.0 0.15 0.15 0.14 89 1046.6
20260504194737 56 296 4.0 11.0 0.14 0.14 0.14 88 1046.6
20260504194727 56 359 4.0 11.0 0.14 0.14 0.14 88 1046.6
20260504194637 56 297 4.0 13.0 0.14 0.14 0.14 88 1046.6
20260504194536 56 297 4.0 13.0 0.14 0.14 0.14 88 1046.6
20260504194437 56 297 5.0 13.0 0.14 0.14 0.14 88 1046.6
20260504194336 56 297 5.0 13.0 0.14 0.14 0.14 88 1046.7
20260504194234 56 298 5.0 13.0 0.14 0.14 0.14 88 1046.6
20260504194222 56 295 5.0 13.0 0.14 0.14 0.14 88 1046.6
20260504194132 56 296 6.0 13.0 0.14 0.14 0.13 88 1046.7
20260504194032 56 296 7.0 13.0 0.13 0.13 0.13 88 1046.6
20260504193932 56 294 7.0 13.0 0.13 0.13 0.13 87 1046.7
20260504193833 56 297 8.0 17.0 0.13 0.13 0.13 87 1046.7
20260504193733 56 283 8.0 17.0 0.13 0.13 0.12 87 1046.7
20260504193720 56 280 8.0 17.0 0.13 0.13 0.12 87 1046.7
20260504193632 56 359 9.0 17.0 0.12 0.12 0.12 87 1046.7
20260504193532 56 297 9.0 17.0 0.12 0.12 0.11 87 1046.8
20260504193432 56 296 9.0 18.0 0.11 0.11 0.11 86 1046.7
20260504193333 56 308 10.0 19.0 0.11 0.11 0.10 86 1046.8
20260504193305 56 301 10.0 19.0 0.10 0.10 0.10 86 1046.8
20260504193258 56 303 10.0 19.0 0.10 0.10 0.09 86 1046.8
20260504193017 57 310 10.0 19.0 0.09 0.09 0.09 85 1046.8
20260504193006 57 283 10.0 19.0 0.09 0.09 0.09 85 1046.8
20260504192720 57 289 10.0 19.0 0.09 0.09 0.09 84 1046.9
20260504192633 57 289 10.0 22.0 0.09 0.09 0.09 84 1046.9
20260504192532 57 292 10.0 22.0 0.09 0.09 0.08 84 1047.0
20260504192432 58 284 10.0 22.0 0.08 0.08 0.07 84 1047.0
20260504192332 58 284 9.0 22.0 0.07 0.07 0.06 83 1047.0
20260504192236 58 290 9.0 22.0 0.06 0.06 0.06 82 1047.0
20260504192220 58 295 9.0 22.0 0.06 0.06 0.06 82 1047.0
20260504192137 58 285 8.0 22.0 0.06 0.06 0.05 82 1047.0
20260504192032 59 300 7.0 22.0 0.06 0.06 0.05 82 1047.1
20260504191931 59 280 6.0 22.0 0.05 0.05 0.05 81 1047.1
20260504191846 59 291 6.0 22.0 0.05 0.05 0.04 80 1047.0
20260504191834 60 318 5.0 22.0 0.04 0.04 0.04 79 1047.0
20260504191826 60 297 5.0 22.0 0.04 0.04 0.04 79 1047.0
20260504191816 60 292 4.0 19.0 0.04 0.04 0.03 79 1047.0
20260504191547 61 310 3.0 10.0 0.02 0.02 0.02 79 1046.9
20260504191227 61 261 2.0 10.0 0.02 0.02 0.02 78 1046.9
20260504191219 61 260 2.0 10.0 0.02 0.02 0.02 78 1046.9
20260504191126 61 260 2.0 6.0 0.02 0.02 0.02 78 1046.8
20260504191025 61 265 2.0 9.0 0.02 0.02 0.01 77 1046.7
20260504190925 61 266 3.0 9.0 0.01 0.01 0.01 77 1046.6
20260504190825 61 264 3.0 9.0 0.01 0.01 0.01 76 1046.6
20260504190725 61 276 3.0 9.0 0.01 0.01 0.01 75 1046.5
20260504190717 62 276 3.0 9.0 0.01 0.01 0.01 74 1046.5
20260504190626 62 276 3.0 9.0 0.01 0.01 0.00 74 1046.5
20260504190524 62 289 3.0 9.0 0.00 0.00 0.00 74 1046.5
20260504190423 62 291 3.0 9.0 0.00 0.00 0.00 73 1046.5
20260504190329 62 291 3.0 9.0 0.00 0.00 0.00 73 1046.4
20260504190301 62 291 3.0 9.0 0.00 0.00 0.00 73 1046.4
20260504190253 62 291 2.0 9.0 0.00 0.00 0.00 73 1046.4
20260504185923 62 259 2.0 8.0 0.00 0.00 0.00 71 1046.4
20260504185823 62 318 2.0 8.0 0.00 0.00 0.00 71 1046.4
20260504185714 62 319 3.0 8.0 0.00 0.00 0.00 70 1046.3
20260504185654 62 319 3.0 8.0 0.00 0.00 0.00 70 1046.3
20260504185646 62 319 3.0 8.0 0.00 0.00 0.00 70 1046.3
20260504185321 62 322 3.0 8.0 0.00 0.00 0.00 71 1046.2
20260504185212 62 321 3.0 8.0 0.00 0.00 0.00 72 1046.2
20260504185152 62 321 3.0 8.0 0.00 0.00 0.00 73 1046.3
20260504185142 62 321 3.0 8.0 0.00 0.00 0.00 74 1046.3
20260504184841 63 320 2.0 8.0 0.00 0.00 0.00 78 1046.3
20260504184824 63 206 2.0 6.0 0.00 0.00 0.00 79 1046.3
20260504184814 63 206 2.0 6.0 0.00 0.00 0.00 79 1046.3
20260504184540 63 206 2.0 6.0 0.00 0.00 0.00 79 1046.3
20260504184214 63 202 3.0 5.0 0.00 0.00 0.00 79 1046.3
20260504184112 63 201 3.0 5.0 0.00 0.00 0.00 79 1046.3
20260504184011 63 201 3.0 5.0 0.00 0.00 0.00 79 1046.3
20260504183909 63 201 3.0 6.0 0.00 0.00 0.00 79 1046.3
20260504183850 63 201 3.0 6.0 0.00 0.00 0.00 79 1046.2
20260504183836 63 201 3.0 6.0 0.00 0.00 0.00 79 1046.2
20260504183507 63 201 3.0 6.0 0.00 0.00 0.00 79 1046.2
20260504183407 63 201 3.0 6.0 0.00 0.00 0.00 79 1046.2
20260504183306 63 201 3.0 6.0 0.00 0.00 0.00 78 1046.2
20260504183205 63 199 3.0 6.0 0.00 0.00 0.00 78 1046.1
20260504183103 63 199 2.0 6.0 0.00 0.00 0.00 79 1046.1
20260504183003 63 199 2.0 6.0 0.00 0.00 0.00 78 1046.0
20260504182912 63 199 2.0 5.0 0.00 0.00 0.00 78 1046.1
20260504182857 63 199 2.0 4.0 0.00 0.00 0.00 78 1046.0
20260504182843 63 199 2.0 4.0 0.00 0.00 0.00 78 1046.0
20260504182502 64 199 2.0 5.0 0.00 0.00 0.00 78 1046.0
20260504182402 64 199 2.0 7.0 0.00 0.00 0.00 78 1046.0
20260504182304 64 199 2.0 7.0 0.00 0.00 0.00 78 1046.0
20260504182202 64 199 3.0 7.0 0.00 0.00 0.00 78 1046.0
20260504182102 64 199 3.0 7.0 0.00 0.00 0.00 78 1046.0
20260504182035 64 199 3.0 7.0 0.00 0.00 0.00 78 1046.0
20260504182028 64 199 3.0 7.0 0.00 0.00 0.00 78 1045.9
20260504181703 64 199 4.0 7.0 0.00 0.00 0.00 78 1045.8
20260504181602 64 199 3.0 7.0 0.00 0.00 0.00 78 1045.8
20260504181502 64 195 3.0 7.0 0.00 0.00 0.00 78 1045.8
20260504181440 64 191 3.0 7.0 0.00 0.00 0.00 78 1045.8
20260504181433 64 191 3.0 7.0 0.00 0.00 0.00 77 1045.7
20260504181203 64 191 3.0 7.0 0.00 0.00 0.00 77 1045.7
20260504181129 64 190 3.0 6.0 0.00 0.00 0.00 77 1045.7
20260504181123 64 188 3.0 6.0 0.00 0.00 0.00 77 1045.6
20260504180801 64 191 3.0 7.0 0.00 0.00 0.00 77 1045.6
20260504180702 64 191 3.0 7.0 0.00 0.00 0.00 77 1045.6
20260504180603 64 191 3.0 7.0 0.00 0.00 0.00 77 1045.6
20260504180504 64 191 3.0 7.0 0.00 0.00 0.00 77 1045.5
20260504180402 64 191 3.0 7.0 0.00 0.00 0.00 77 1045.5
20260504180339 64 191 3.0 7.0 0.00 0.00 0.00 77 1045.5
20260504180330 64 191 3.0 7.0 0.00 0.00 0.00 77 1045.4
20260504180325 64 191 3.0 7.0 0.00 0.00 0.00 77 1045.4
20260504180000 64 191 3.0 7.0 0.00 0.00 0.00 76 1045.4
20260504175936 64 188 3.0 7.0 0.00 0.00 0.00 76 1045.4
20260504175928 64 187 3.0 8.0 0.00 0.00 0.00 76 1045.4
20260504175659 64 190 3.0 8.0 0.00 0.00 0.00 76 1045.4
20260504175626 64 190 3.0 8.0 0.00 0.00 0.00 76 1045.4
20260504175617 64 191 3.0 8.0 0.00 0.00 0.00 76 1045.4
20260504175606 64 189 3.0 8.0 0.00 0.00 0.00 76 1045.4
20260504175551 64 159 3.0 8.0 0.00 0.00 0.00 76 1045.5
20260504175327 64 154 3.0 8.0 0.00 0.00 0.00 76 1045.5
20260504174957 64 154 2.0 8.0 0.00 0.00 0.00 76 1045.5
20260504174933 64 154 2.0 8.0 0.00 0.00 0.00 76 1045.4
20260504174925 64 143 2.0 5.0 0.00 0.00 0.00 76 1045.4
20260504174906 64 142 2.0 5.0 0.00 0.00 0.00 77 1045.2
20260504174555 64 142 1.0 5.0 0.00 0.00 0.00 77 1045.1
20260504174455 64 139 1.0 4.0 0.00 0.00 0.00 76 1045.2
20260504174356 64 139 1.0 2.0 0.00 0.00 0.00 76 1045.2
20260504174256 64 139 1.0 2.0 0.00 0.00 0.00 76 1045.1
20260504174200 64 139 1.0 4.0 0.00 0.00 0.00 76 1045.1
20260504174156 64 139 1.0 5.0 0.00 0.00 0.00 75 1045.1
20260504174055 64 139 1.0 5.0 0.00 0.00 0.00 75 1045.1
20260504173956 64 139 1.0 5.0 0.00 0.00 0.00 76 1045.1
20260504173855 64 139 1.0 5.0 0.00 0.00 0.00 76 1045.2
20260504173756 64 139 1.0 5.0 0.00 0.00 0.00 76 1045.2
20260504173702 64 139 2.0 5.0 0.00 0.00 0.00 76 1045.2
20260504173653 64 139 2.0 5.0 0.00 0.00 0.00 76 1045.2
20260504173554 64 139 1.0 5.0 0.00 0.00 0.00 76 1045.2
20260504173524 64 139 1.0 5.0 0.00 0.00 0.00 76 1045.1
20260504173518 64 139 1.0 5.0 0.00 0.00 0.00 76 1045.1
20260504173200 64 139 1.0 5.0 0.00 0.00 0.00 76 1045.2
20260504173154 64 139 1.0 5.0 0.00 0.00 0.00 76 1045.2
20260504173125 64 136 1.0 4.0 0.00 0.00 0.00 76 1045.2
20260504173118 64 136 1.0 4.0 0.00 0.00 0.00 76 1045.2
20260504172750 64 136 1.0 3.0 0.00 0.00 0.00 76 1045.2
20260504172701 64 136 1.0 3.0 0.00 0.00 0.00 76 1045.4
20260504172650 64 136 1.0 3.0 0.00 0.00 0.00 76 1045.4
20260504172634 64 135 1.0 3.0 0.00 0.00 0.00 76 1045.4
20260504172625 64 136 1.0 3.0 0.00 0.00 0.00 76 1045.5
20260504172249 64 135 1.0 3.0 0.00 0.00 0.00 76 1045.5
20260504172200 64 135 1.0 3.0 0.00 0.00 0.00 76 1045.5
20260504172150 64 136 1.0 3.0 0.00 0.00 0.00 76 1045.5
20260504172050 64 136 2.0 3.0 0.00 0.00 0.00 76 1045.5
20260504171950 64 135 2.0 3.0 0.00 0.00 0.00 76 1045.5
20260504171850 64 136 2.0 3.0 0.00 0.00 0.00 76 1045.5
20260504171726 64 136 2.0 3.0 0.00 0.00 0.00 76 1045.5
20260504171722 64 136 2.0 4.0 0.00 0.00 0.00 76 1045.5
20260504171711 64 136 2.0 4.0 0.00 0.00 0.00 76 1045.5
20260504171347 64 136 2.0 4.0 0.00 0.00 0.00 76 1045.5
20260504171248 64 136 2.0 4.0 0.00 0.00 0.00 76 1045.5
20260504171201 64 136 2.0 4.0 0.00 0.00 0.00 76 1045.5
20260504171148 64 136 2.0 4.0 0.00 0.00 0.00 76 1045.5
20260504171048 64 136 2.0 4.0 0.00 0.00 0.00 76 1045.5
20260504170947 64 135 2.0 4.0 0.00 0.00 0.00 76 1045.5
20260504170848 64 135 2.0 4.0 0.00 0.00 0.00 76 1045.5
20260504170729 64 136 2.0 4.0 0.00 0.00 0.00 76 1045.4
20260504170725 64 136 2.0 3.0 0.00 0.00 0.00 76 1045.4
20260504170712 64 136 2.0 3.0 0.00 0.00 0.00 76 1045.4
20260504170346 64 136 2.0 3.0 0.00 0.00 0.00 76 1045.4
20260504170246 64 134 2.0 3.0 0.00 0.00 0.00 76 1045.4
20260504170201 64 136 2.0 3.0 0.00 0.00 0.00 76 1045.4
20260504170146 64 136 2.0 3.0 0.00 0.00 0.00 76 1045.4
20260504151118 65 203 3.0 6.0 0.00 0.00 0.00 75 1045.9
20260504151013 65 203 3.0 6.0 0.00 0.00 0.00 75 1046.0
20260504150911 65 202 3.0 6.0 0.00 0.00 0.00 75 1046.0
20260504150809 65 202 3.0 8.0 0.00 0.00 0.00 76 1046.0
20260504150711 65 206 3.0 8.0 0.00 0.00 0.00 76 1046.0
20260504150704 65 207 3.0 8.0 0.00 0.00 0.00 76 1046.0
20260504150606 65 222 3.0 8.0 0.00 0.00 0.00 76 1046.0
20260504150541 64 201 3.0 8.0 0.00 0.00 0.00 76 1046.0
20260504150535 64 122 3.0 8.0 0.00 0.00 0.00 76 1045.9
20260504150209 64 122 4.0 8.0 0.00 0.00 0.00 76 1046.0
20260504150203 64 111 4.0 8.0 0.00 0.00 0.00 76 1046.0
20260504150109 64 115 4.0 8.0 0.00 0.00 0.00 76 1046.0
20260504141246 63 160 2.0 7.0 0.00 0.00 0.00 78 1046.3
20260504141204 63 161 3.0 7.0 0.00 0.00 0.00 78 1046.3
20260504141143 63 161 3.0 7.0 0.00 0.00 0.00 78 1046.3
20260504141104 63 162 3.0 7.0 0.00 0.00 0.00 77 1046.3
20260504141055 63 161 3.0 7.0 0.00 0.00 0.00 77 1046.2
20260504141049 63 161 3.0 7.0 0.00 0.00 0.00 77 1046.2
20260504141033 63 161 3.0 7.0 0.00 0.00 0.00 77 1046.2
20260504141027 63 162 3.0 8.0 0.00 0.00 0.00 77 1046.2
20260504140435 63 149 4.0 9.0 0.00 0.00 0.00 77 1046.3
20260504140334 63 149 5.0 9.0 0.00 0.00 0.00 76 1046.2
20260504140233 63 149 4.0 9.0 0.00 0.00 0.00 77 1046.3
20260504140204 63 177 4.0 9.0 0.00 0.00 0.00 77 1046.3
20260504140132 63 222 4.0 9.0 0.00 0.00 0.00 77 1046.2
20260504130805 65 184 5.0 14.0 0.00 0.00 0.00 77 1046.5
20260504130703 65 210 5.0 14.0 0.00 0.00 0.00 77 1046.4
20260504130608 65 151 5.0 14.0 0.00 0.00 0.00 76 1046.3
20260504130530 66 154 6.0 14.0 0.00 0.00 0.00 76 1046.3
20260504130524 66 198 6.0 14.0 0.00 0.00 0.00 76 1046.3
20260504130510 66 201 6.0 14.0 0.00 0.00 0.00 76 1046.3
20260504130451 66 170 6.0 14.0 0.00 0.00 0.00 76 1046.3
20260504120303 70 214 5.0 13.0 0.00 0.00 0.00 72 1046.3
20260504120203 70 225 5.0 13.0 0.00 0.00 0.00 71 1046.2
20260504120112 70 155 6.0 13.0 0.00 0.00 0.00 71 1046.3
20260504110653 69 199 4.0 12.0 0.00 0.00 0.00 72 1046.7
20260504110557 69 199 4.0 12.0 0.00 0.00 0.00 72 1046.6
20260504110458 69 201 4.0 12.0 0.00 0.00 0.00 72 1046.7
20260504110358 69 183 4.0 12.0 0.00 0.00 0.00 71 1046.6
20260504110255 69 185 4.0 12.0 0.00 0.00 0.00 71 1046.6
20260504110156 69 168 4.0 12.0 0.00 0.00 0.00 71 1046.7
20260504110103 69 100 3.0 9.0 0.00 0.00 0.00 70 1046.7
20260504100406 68 133 5.0 10.0 0.00 0.00 0.00 68 1046.9
20260504100357 68 131 5.0 10.0 0.00 0.00 0.00 69 1046.9
20260504100346 68 98 5.0 10.0 0.00 0.00 0.00 68 1046.9
20260504081939 65 39 2.0 4.0 0.00 0.00 0.00 73 1047.5
20260504081839 65 39 2.0 4.0 0.00 0.00 0.00 73 1047.5
20260504081739 65 39 2.0 4.0 0.00 0.00 0.00 72 1047.5
20260504081632 65 39 1.0 4.0 0.00 0.00 0.00 72 1047.6
20260504081537 65 39 1.0 4.0 0.00 0.00 0.00 72 1047.5
20260504081437 65 39 1.0 4.0 0.00 0.00 0.00 71 1047.5
20260504081426 65 39 1.0 4.0 0.00 0.00 0.00 71 1047.6
20260504081419 65 38 1.0 3.0 0.00 0.00 0.00 71 1047.5
20260504081348 65 38 1.0 3.0 0.00 0.00 0.00 71 1047.6
20260504081035 66 38 1.0 3.0 0.00 0.00 0.00 72 1047.6
20260504080937 66 38 1.0 2.0 0.00 0.00 0.00 72 1047.6
20260504080836 66 38 1.0 2.0 0.00 0.00 0.00 72 1047.6
20260504080736 66 38 1.0 2.0 0.00 0.00 0.00 72 1047.6
20260504080635 66 38 1.0 2.0 0.00 0.00 0.00 73 1047.6
20260504080543 66 38 1.0 2.0 0.00 0.00 0.00 73 1047.6
20260504080435 66 38 1.0 4.0 0.00 0.00 0.00 73 1047.6
20260504080335 66 38 1.0 4.0 0.00 0.00 0.00 73 1047.6
20260504080235 65 38 1.0 4.0 0.00 0.00 0.00 73 1047.6
20260504080156 65 38 2.0 4.0 0.00 0.00 0.00 73 1047.6
20260504080143 65 38 2.0 4.0 0.00 0.00 0.00 73 1047.6
20260504080132 65 38 2.0 4.0 0.00 0.00 0.00 73 1047.6
20260504080122 65 38 2.0 4.0 0.00 0.00 0.00 72 1047.6